Regional Weather Roundup
Issued by NWS

Home | Current Version | Previous Version | Graphics & Text | Print | Product List | Glossary On
Versions: 1 2 3 4 5 6 7 8 9 10 11 12 13 14 15 16 17 18 19 20 21 22 23 24 25 26 27 28 29 30 31 32 33 34 35 36 37 38 39 40 41 42 43 44 45 46 47 48 49 50
000
ASUS43 KIND 170659
RWRIN

WEATHER ROUNDUP FOR INDIANA
NATIONAL WEATHER SERVICE INDIANAPOLIS IN
200 AM EST TUE JAN 17 2017

NOTE: "FAIR" INDICATES FEW OR NO CLOUDS BELOW 12,000 FEET WITH NO
SIGNIFICANT WEATHER AND/OR OBSTRUCTIONS TO VISIBILITY.

* - STATION DOES NOT REPORT WEATHER SUCH AS PRECIPITATION OR FOG.

+ - STATION NOT QUALITY CONTROLLED BY THE NATIONAL WEATHER SERVICE.
    USE DATA WITH CAUTION...ESPECIALLY DEWPOINT AND RELATIVE
    HUMIDITY OBSERVATIONS.

INZ001>003-010>013-019-020-170800-
NORTHWEST INDIANA

CITY           SKY/WX    TMP DP  RH WIND       PRES   REMARKS
MONTICELLO +   CLOUDY    49  48  95 SE6       29.82F FOG
RENSSELAER +   CLOUDY    48  48 100 SE17G24   29.79F

$$

LMZ046-743>745-170800-
SOUTHERN LAKE MICHIGAN

STATION/POSITION TIME  TEMP    WIND        PRES    WAVE
                       AIR SEA DIR/SP/G            HT
                 (UTC) (F)     (DEG/KT/KT) (MB)    (FT)
BURNS HARBOR     0640   47     140/ 13/ 20 1009.5F

$$

INZ004-005-014>016-021>024-170800-
NORTH CENTRAL INDIANA

CITY           SKY/WX    TMP DP  RH WIND       PRES   REMARKS
GOSHEN         CLOUDY    42  39  89 SE9       29.87F FOG
PERU/GRISSOM   LGT RAIN  50  50 100 S14       29.85F
SOUTH BEND     FOG       38  38 100 E9        29.86F VSB 1/2

$$

INZ006>009-017-018-025>027-170800-
NORTHEAST INDIANA

CITY           SKY/WX    TMP DP  RH WIND       PRES   REMARKS
ANGOLA *+        N/A     32  32 100 E10       29.91F WCI  24
FORT WAYNE     FOG       47  45  93 SE9       29.91F VSB 1
KENDALLVILLE + LGT RAIN  38  38 100 SE7       29.91F

$$

INZ028-029-035-036-043>045-051>053-170800-
WEST CENTRAL INDIANA

CITY           SKY/WX    TMP DP  RH WIND       PRES   REMARKS
CRAWFORDSVL +  CLOUDY    51  51 100 SE12      29.85F
LAFAYETTE      CLOUDY    53  53 100 SE12      29.82F
TERRE HAUTE    CLOUDY    56  54  93 S15       29.86F

$$

INZ030>032-037>040-046>048-054>057-064-065-170800-
CENTRAL INDIANA

CITY           SKY/WX    TMP DP  RH WIND       PRES   REMARKS
INDIANAPOLIS   CLOUDY    55  53  93 S12       29.89F
-EAGLE CREEK   CLOUDY    53  51  93 SE5       29.88F
KOKOMO +       LGT RAIN  50  49  96 S14       29.87F
MT COMFORT *+  CLOUDY    54  52  94 S9        29.90F
SHELBYVILLE    LGT RAIN  55  52  89 S12       29.91F

$$

INZ033-034-041-042-049-050-058-059-170800-
EAST CENTRAL INDIANA

CITY           SKY/WX    TMP DP  RH WIND       PRES   REMARKS
MUNCIE         LGT RAIN  54  52  93 S10       29.90F

$$

INZ060-061-067>069-081>083-085>088-170800-
SOUTHWEST INDIANA

CITY           SKY/WX    TMP DP  RH WIND       PRES   REMARKS
EVANSVILLE     LGT RAIN  59  56  89 S8        29.91F
HUNTINGBURG *+ LGT RAIN  58  57  97 S12       29.93F

$$

INZ062-063-066-070>080-084-089>092-170800-
SOUTH CENTRAL AND SOUTHEAST INDIANA

CITY           SKY/WX    TMP DP  RH WIND       PRES   REMARKS
BLOOMINGTON    CLOUDY    59  55  87 S12       29.90F
MADISON *+     CLOUDY    55  54  94 S8        29.98S
SEYMOUR +      CLOUDY    59  55  88 S13       29.94F

$$





USA.gov is the U.S. government's official web portal to all federal, state and local government web resources and services.